DW5092 Weather Reports


Display with metric or nautical units.
time (UTC)temp
F
wind
direction
speed
MPH
gust
MPH
rain 1hr
in
rain 24hr
in
rain mn
in
humidity
%
barometer
mb
20260505124801 34 0 0.0 0.0 0.00 0.00 0.00 80 1015.7
20260505122401 35 0 0.0 0.0 0.00 0.00 0.00 78 1015.6
20260505121200 35 287 2.0 6.0 0.00 0.00 0.00 78 1015.6
20260505120000 35 294 1.0 6.0 0.00 0.00 0.00 79 1015.7
20260505114801 35 301 2.0 8.0 0.00 0.00 0.00 80 1015.5
20260505113601 33 288 0.0 2.0 0.00 0.00 0.00 83 1015.6
20260505112400 32 0 0.0 0.0 0.00 0.00 0.00 82 1015.6
20260505111201 33 0 0.0 0.0 0.00 0.00 0.00 81 1015.5
20260505101201 36 345 0.0 3.0 0.00 0.00 0.00 74 1015.6
20260505100001 36 3 1.0 7.0 0.00 0.00 0.00 73 1015.4
20260505094800 36 6 1.0 8.0 0.00 0.00 0.00 72 1015.4
20260505093601 37 13 1.0 6.0 0.00 0.00 0.00 70 1015.2
20260505092400 37 22 2.0 6.0 0.00 0.00 0.00 70 1015.1
20260505091201 38 28 2.0 5.0 0.00 0.00 0.00 69 1014.9
20260505084801 40 43 2.0 8.0 0.00 0.00 0.00 67 1014.7
20260505081201 44 0 0.0 0.0 0.00 0.00 0.00 57 1014.3
20260505080001 45 302 1.0 6.0 0.00 0.00 0.00 55 1014.3
20260505073601 45 309 2.0 8.0 0.00 0.00 0.00 54 1014.3
20260505071200 46 283 2.0 7.0 0.00 0.00 0.00 56 1014.4
20260505063601 45 0 0.0 0.0 0.00 0.00 0.00 61 1014.4
20260505062400 45 0 0.0 0.0 0.00 0.00 0.00 66 1014.4
20260505061201 45 0 0.0 0.0 0.00 0.00 0.00 63 1014.5
20260505060002 46 3 2.0 7.0 0.00 0.00 0.00 63 1014.6
20260505054801 46 32 1.0 8.0 0.00 0.00 0.00 63 1014.5
20260505053601 47 355 0.0 4.0 0.00 0.00 0.00 61 1014.4
20260505052401 47 315 2.0 7.0 0.00 0.00 0.00 60 1014.2
20260505051201 47 325 2.0 10.0 0.00 0.00 0.00 61 1013.9
20260505041201 47 0 0.0 0.0 0.00 0.00 0.00 63 1013.2
20260505040001 47 342 0.0 4.0 0.00 0.00 0.00 62 1013.1
20260505034801 47 0 0.0 0.0 0.00 0.00 0.00 62 1012.9
20260505033601 47 341 0.0 4.0 0.00 0.00 0.00 61 1012.7
20260505032401 48 328 0.0 2.0 0.00 0.00 0.00 60 1012.6
20260505031201 48 328 0.0 3.0 0.00 0.00 0.00 59 1012.5
20260505030002 48 0 0.0 0.0 0.00 0.00 0.00 58 1012.6
20260505024801 48 0 0.0 0.0 0.00 0.00 0.00 57 1012.5
20260505023601 48 0 0.0 0.0 0.00 0.00 0.00 57 1012.2
20260505020002 50 0 0.0 0.0 0.00 0.00 0.00 54 1012.1
20260505014801 50 16 0.0 4.0 0.00 0.00 0.00 52 1012.1
20260505013601 50 2 1.0 6.0 0.00 0.00 0.00 51 1012.0
20260505012401 51 1 0.0 3.0 0.00 0.00 0.00 51 1012.0
20260505011201 51 339 1.0 10.0 0.00 0.00 0.00 50 1012.0
20260505004801 52 340 1.0 11.0 0.00 0.00 0.00 50 1012.1
20260505002401 52 317 2.0 7.0 0.00 0.00 0.00 49 1012.1
20260505000001 52 305 2.0 8.0 0.00 0.00 0.00 50 1012.2
20260504234801 52 307 2.0 11.0 0.00 0.00 0.00 52 1012.2
20260504233602 52 314 2.0 10.0 0.00 0.00 0.00 51 1012.0
20260504232402 52 323 2.0 8.0 0.00 0.00 0.00 49 1012.0
20260504231201 53 320 2.0 9.0 0.00 0.00 0.00 51 1011.9
20260504230001 53 312 2.0 9.0 0.00 0.00 0.00 51 1012.1
20260504224801 53 320 4.0 14.0 0.00 0.00 0.00 49 1012.0
20260504222401 54 324 4.0 14.0 0.00 0.00 0.00 50 1012.1
20260504221201 54 328 3.0 15.0 0.00 0.00 0.00 50 1012.1
20260504220001 54 342 3.0 9.0 0.00 0.00 0.00 51 1012.2
20260504214802 54 340 4.0 13.0 0.00 0.00 0.00 50 1012.1
20260504213601 54 343 4.0 11.0 0.00 0.00 0.00 48 1012.1
20260504212401 55 346 3.0 10.0 0.00 0.00 0.00 48 1012.2
20260504210002 52 300 3.0 9.0 0.00 0.00 0.00 54 1012.8
20260504202402 52 312 2.0 10.0 0.00 0.00 0.00 52 1013.0
20260504201201 52 343 3.0 13.0 0.00 0.00 0.00 52 1012.9
20260504200002 52 324 4.0 12.0 0.00 0.00 0.00 52 1013.0
20260504194802 52 331 3.0 14.0 0.00 0.00 0.00 52 1013.1
20260504193601 51 359 3.0 11.0 0.00 0.00 0.00 51 1013.1
20260504192402 52 345 3.0 12.0 0.00 0.00 0.00 51 1013.1
20260504191201 52 326 4.0 12.0 0.00 0.00 0.00 54 1013.0
20260504190002 53 347 2.0 12.0 0.00 0.00 0.00 54 1013.1
20260504183601 53 327 3.0 13.0 0.00 0.00 0.00 54 1013.2
20260504182401 52 322 4.0 12.0 0.00 0.00 0.00 55 1013.2
20260504181201 52 343 3.0 11.0 0.00 0.00 0.00 55 1013.3
20260504174801 51 323 3.0 10.0 0.00 0.00 0.00 61 1013.9
20260504173602 50 317 5.0 12.0 0.00 0.00 0.00 57 1013.5
20260504172402 50 314 6.0 17.0 0.00 0.00 0.00 60 1013.6
20260504141201 48 346 1.0 6.0 0.00 0.01 0.00 65 1014.5